User: anonymous   Login
Location: New Plymouth
(39.0670°S, 174.0830°E)
Time: 13:18:29
(UTC+13:00)
Language:

Cosmos 1151 Rocket - Orbit

View from above orbital plane
View from above orbital plane
View from above satellite
View from above satellite

Ground track
Ground track

The orbit data is extracted from the following two-line orbital elements,

1 11672U 80005B   19293.32169314  .00000072  00000-0  51363-5 0  9995
2 11672  82.5173 352.1812 0016718   3.6594 356.4742 14.87973391150556
Epoch (UTC): 20 October 2019 07:43:14
Eccentricity: 0.0016718
inclination: 82.5173°
perigee height: 592 km
apogee height: 616 km
right ascension of ascending node: 352.1812°
argument of perigee: 3.6594°
revolutions per day: 14.87973391
mean anomaly at epoch: 356.4742°
orbit number at epoch: 15055

The dashed part of the orbit path shows where the satellite is in the earth's shadow,  

DLR